Location: Newark
(43.6583°N, 1.6617°E)
Time: 02:18:27
(UTC+00:00)

Tiros 1 - Pass Details

Date: 02 September 2019
Orbit: 630 x 664 km, 48.4° (Epoch: 17 October)

Event Time Altitude Azimuth Distance (km) Brightness Sun altitude
Rises 18:15:37 0° 197° (SSW) 2,915 10.6 1.3°
Reaches altitude 10° 18:18:30 10° 179° (S) 2,006 9.6 0.8°
Maximum altitude 18:21:41 19° 135° (SE) 1,521 8.6 0.3°
Drops below altitude 10° 18:24:52 10° 92° (E) 2,007 9.0 -0.3°
Sets 18:27:45 0° 74° (ENE) 2,917 10.0 -0.8°
